| time (UTC) | temp F | wind direction | speed MPH | gust MPH | rain 1hr in | rain 24hr in | rain mn in | humidity % | barometer mb |
| 20260502130630 | 40 | 212 | 4.0 | 10.0 | 0.00 | 0.14 | 0.14 | 91 | 1009.0 |
| 20260502130131 | 40 | 263 | 4.0 | 11.0 | 0.00 | 0.14 | 0.14 | 93 | 1008.8 |
| 20260502123600 | 40 | 295 | 2.0 | 6.0 | 0.00 | 0.14 | 0.14 | 96 | 1008.9 |
| 20260502123053 | 39 | 258 | 2.0 | 6.0 | 0.00 | 0.14 | 0.14 | 96 | 1008.9 |
| 20260502122547 | 38 | 282 | 2.0 | 8.0 | 0.00 | 0.14 | 0.14 | 96 | 1008.9 |
| 20260502122037 | 38 | 5 | 1.0 | 8.0 | 0.00 | 0.14 | 0.14 | 96 | 1008.8 |
| 20260502121530 | 37 | 265 | 1.0 | 3.0 | 0.00 | 0.14 | 0.14 | 96 | 1009.0 |
| 20260502121025 | 37 | 265 | 1.0 | 7.0 | 0.00 | 0.14 | 0.14 | 96 | 1008.9 |
| 20260502115503 | 37 | 296 | 2.0 | 7.0 | 0.00 | 0.14 | 0.14 | 96 | 1008.9 |
| 20260502115215 | 37 | 294 | 2.0 | 4.0 | 0.00 | 0.14 | 0.14 | 96 | 1008.9 |
| 20260502114709 | 37 | 327 | 2.0 | 5.0 | 0.00 | 0.14 | 0.14 | 96 | 1008.9 |
| 20260502113942 | 37 | 5 | 2.0 | 5.0 | 0.00 | 0.14 | 0.14 | 96 | 1008.8 |
| 20260502112925 | 37 | 309 | 1.0 | 4.0 | 0.00 | 0.14 | 0.14 | 96 | 1008.8 |
| 20260502112419 | 37 | 308 | 1.0 | 3.0 | 0.00 | 0.14 | 0.14 | 96 | 1008.8 |
| 20260502111909 | 36 | 305 | 2.0 | 4.0 | 0.00 | 0.14 | 0.14 | 97 | 1008.9 |
| 20260502111403 | 36 | 303 | 1.0 | 4.0 | 0.00 | 0.14 | 0.14 | 97 | 1008.8 |
| 20260502111123 | 36 | 300 | 2.0 | 5.0 | 0.00 | 0.14 | 0.14 | 97 | 1008.7 |
| 20260502110348 | 36 | 304 | 2.0 | 5.0 | 0.00 | 0.14 | 0.14 | 96 | 1008.7 |
| 20260502105841 | 36 | 298 | 2.0 | 5.0 | 0.00 | 0.14 | 0.14 | 96 | 1008.7 |
| 20260502105335 | 36 | 325 | 1.0 | 4.0 | 0.00 | 0.14 | 0.14 | 97 | 1008.7 |
| 20260502104825 | 36 | 285 | 1.0 | 4.0 | 0.00 | 0.14 | 0.14 | 97 | 1008.6 |
| 20260502104319 | 36 | 276 | 2.0 | 6.0 | 0.00 | 0.14 | 0.14 | 96 | 1008.6 |
| 20260502103813 | 36 | 276 | 2.0 | 6.0 | 0.00 | 0.14 | 0.14 | 96 | 1008.7 |
| 20260502103304 | 36 | 272 | 2.0 | 6.0 | 0.00 | 0.14 | 0.14 | 96 | 1008.7 |
| 20260502102758 | 36 | 263 | 2.0 | 4.0 | 0.00 | 0.14 | 0.14 | 96 | 1008.6 |
| 20260502102251 | 36 | 266 | 2.0 | 4.0 | 0.00 | 0.14 | 0.14 | 96 | 1008.6 |
| 20260502101741 | 35 | 265 | 1.0 | 3.0 | 0.00 | 0.14 | 0.14 | 96 | 1008.5 |
| 20260502101235 | 35 | 317 | 1.0 | 3.0 | 0.00 | 0.14 | 0.14 | 96 | 1008.4 |
| 20260502100731 | 36 | 332 | 1.0 | 3.0 | 0.00 | 0.14 | 0.14 | 96 | 1008.4 |
| 20260502100441 | 36 | 332 | 1.0 | 3.0 | 0.00 | 0.14 | 0.14 | 96 | 1008.2 |
| 20260502090823 | 35 | 333 | 0.0 | 2.0 | 0.00 | 0.14 | 0.14 | 96 | 1008.2 |
| 20260502071422 | 36 | 348 | 2.0 | 5.0 | 0.05 | 0.15 | 0.14 | 96 | 1008.1 |
| 20260502070922 | 36 | 5 | 1.0 | 5.0 | 0.06 | 0.15 | 0.14 | 96 | 1008.2 |
| 20260502070421 | 36 | 323 | 1.0 | 4.0 | 0.06 | 0.14 | 0.13 | 95 | 1008.2 |
| 20260502065920 | 36 | 323 | 1.0 | 4.0 | 0.06 | 0.14 | 0.13 | 96 | 1008.4 |
| 20260502065420 | 36 | 323 | 1.0 | 4.0 | 0.06 | 0.14 | 0.13 | 95 | 1008.4 |
| 20260502064920 | 36 | 323 | 1.0 | 4.0 | 0.06 | 0.14 | 0.13 | 95 | 1008.4 |
| 20260502064410 | 36 | 323 | 1.0 | 4.0 | 0.05 | 0.13 | 0.12 | 95 | 1008.5 |
| 20260502063904 | 36 | 304 | 0.0 | 2.0 | 0.06 | 0.13 | 0.12 | 95 | 1008.5 |
| 20260502063358 | 36 | 304 | 0.0 | 2.0 | 0.05 | 0.12 | 0.11 | 95 | 1008.5 |
| 20260502062852 | 36 | 304 | 1.0 | 2.0 | 0.05 | 0.12 | 0.11 | 95 | 1008.5 |
| 20260502062352 | 36 | 304 | 1.0 | 2.0 | 0.04 | 0.11 | 0.10 | 95 | 1008.6 |
| 20260502061852 | 37 | 304 | 0.0 | 2.0 | 0.04 | 0.11 | 0.10 | 95 | 1008.7 |
| 20260502061351 | 37 | 304 | 0.0 | 2.0 | 0.04 | 0.10 | 0.09 | 95 | 1008.7 |
| 20260502060849 | 37 | 304 | 0.0 | 2.0 | 0.03 | 0.09 | 0.08 | 95 | 1008.6 |
| 20260502060348 | 37 | 304 | 0.0 | 1.0 | 0.03 | 0.08 | 0.07 | 95 | 1008.7 |
| 20260502060115 | 37 | 304 | 0.0 | 1.0 | 0.04 | 0.08 | 0.07 | 95 | 1008.7 |
| 20260502055345 | 37 | 304 | 0.0 | 2.0 | 0.04 | 0.08 | 0.07 | 95 | 1008.8 |
| 20260502054846 | 37 | 304 | 1.0 | 2.0 | 0.05 | 0.08 | 0.07 | 94 | 1008.6 |
| 20260502054346 | 37 | 304 | 0.0 | 2.0 | 0.05 | 0.08 | 0.07 | 94 | 1008.6 |
| 20260502053845 | 37 | 304 | 0.0 | 2.0 | 0.05 | 0.07 | 0.06 | 94 | 1008.6 |
| 20260502053346 | 37 | 304 | 1.0 | 3.0 | 0.05 | 0.07 | 0.06 | 94 | 1008.6 |
| 20260502052846 | 37 | 304 | 1.0 | 3.0 | 0.05 | 0.07 | 0.06 | 94 | 1008.7 |
| 20260502052345 | 37 | 303 | 1.0 | 2.0 | 0.06 | 0.07 | 0.06 | 93 | 1008.7 |
| 20260502051846 | 38 | 303 | 0.0 | 2.0 | 0.06 | 0.07 | 0.06 | 93 | 1008.7 |
| 20260502051346 | 38 | 302 | 0.0 | 2.0 | 0.05 | 0.06 | 0.05 | 93 | 1008.7 |
| 20260502050846 | 38 | 302 | 1.0 | 2.0 | 0.05 | 0.06 | 0.05 | 93 | 1008.7 |
| 20260502050345 | 38 | 302 | 1.0 | 2.0 | 0.04 | 0.05 | 0.04 | 93 | 1008.7 |
| 20260502045846 | 38 | 302 | 1.0 | 2.0 | 0.03 | 0.04 | 0.04 | 92 | 1008.8 |
| 20260502044846 | 38 | 302 | 2.0 | 4.0 | 0.02 | 0.03 | 0.02 | 92 | 1008.8 |
| 20260502044611 | 38 | 302 | 1.0 | 4.0 | 0.02 | 0.03 | 0.02 | 92 | 1008.9 |
| 20260502043845 | 38 | 302 | 1.0 | 2.0 | 0.01 | 0.03 | 0.01 | 92 | 1008.9 |
| 20260502043346 | 38 | 302 | 1.0 | 2.0 | 0.01 | 0.03 | 0.01 | 92 | 1008.9 |
| 20260502042846 | 38 | 302 | 1.0 | 2.0 | 0.01 | 0.03 | 0.01 | 91 | 1008.8 |
| 20260502042346 | 38 | 302 | 1.0 | 2.0 | 0.00 | 0.02 | 0.01 | 91 | 1008.9 |
| 20260502041845 | 38 | 302 | 1.0 | 2.0 | 0.00 | 0.02 | 0.00 | 90 | 1008.9 |
| 20260502041605 | 39 | 302 | 1.0 | 3.0 | 0.00 | 0.02 | 0.00 | 89 | 1008.9 |
| 20260502041106 | 39 | 302 | 2.0 | 5.0 | 0.00 | 0.02 | 0.00 | 88 | 1008.9 |
| 20260502040346 | 39 | 302 | 2.0 | 5.0 | 0.00 | 0.02 | 0.00 | 86 | 1008.8 |
| 20260502035845 | 40 | 313 | 2.0 | 8.0 | 0.00 | 0.02 | 0.02 | 84 | 1008.8 |
| 20260502035345 | 40 | 328 | 2.0 | 8.0 | 0.00 | 0.02 | 0.02 | 82 | 1008.8 |
| 20260502035114 | 41 | 327 | 2.0 | 9.0 | 0.00 | 0.02 | 0.02 | 79 | 1008.8 |
| 20260502034348 | 41 | 317 | 2.0 | 9.0 | 0.00 | 0.02 | 0.02 | 77 | 1008.7 |
| 20260502033844 | 41 | 318 | 2.0 | 6.0 | 0.00 | 0.02 | 0.02 | 76 | 1008.8 |
| 20260502033344 | 42 | 302 | 2.0 | 5.0 | 0.00 | 0.02 | 0.02 | 75 | 1008.8 |
| 20260502032843 | 42 | 338 | 2.0 | 5.0 | 0.00 | 0.02 | 0.02 | 72 | 1008.7 |
| 20260502032338 | 42 | 310 | 2.0 | 5.0 | 0.00 | 0.02 | 0.02 | 71 | 1008.7 |
| 20260502031837 | 42 | 331 | 2.0 | 4.0 | 0.00 | 0.02 | 0.02 | 72 | 1008.7 |
| 20260502031335 | 42 | 295 | 2.0 | 5.0 | 0.00 | 0.02 | 0.02 | 70 | 1008.7 |
| 20260502030834 | 43 | 292 | 2.0 | 6.0 | 0.00 | 0.02 | 0.02 | 67 | 1008.7 |
| 20260502030333 | 43 | 252 | 2.0 | 6.0 | 0.00 | 0.02 | 0.02 | 66 | 1008.7 |
| 20260502030051 | 42 | 288 | 2.0 | 5.0 | 0.00 | 0.02 | 0.02 | 68 | 1008.8 |
| 20260502025334 | 42 | 259 | 2.0 | 5.0 | 0.00 | 0.02 | 0.02 | 70 | 1008.8 |
| 20260502024834 | 42 | 254 | 2.0 | 6.0 | 0.00 | 0.02 | 0.02 | 71 | 1008.8 |
| 20260502024333 | 42 | 273 | 2.0 | 6.0 | 0.00 | 0.02 | 0.02 | 69 | 1008.7 |
| 20260502023830 | 42 | 259 | 3.0 | 7.0 | 0.00 | 0.02 | 0.02 | 68 | 1008.8 |
| 20260502023330 | 42 | 250 | 3.0 | 7.0 | 0.00 | 0.02 | 0.02 | 67 | 1008.7 |
| 20260502023054 | 42 | 271 | 2.0 | 6.0 | 0.00 | 0.02 | 0.02 | 68 | 1008.8 |
| 20260502022330 | 42 | 263 | 2.0 | 6.0 | 0.00 | 0.02 | 0.02 | 66 | 1008.8 |
| 20260502021830 | 42 | 279 | 2.0 | 5.0 | 0.00 | 0.02 | 0.02 | 68 | 1008.8 |
| 20260502021330 | 43 | 246 | 3.0 | 8.0 | 0.00 | 0.02 | 0.02 | 66 | 1008.9 |
| 20260502020830 | 43 | 248 | 3.0 | 8.0 | 0.00 | 0.02 | 0.02 | 63 | 1008.9 |
| 20260502020545 | 43 | 250 | 2.0 | 7.0 | 0.00 | 0.02 | 0.02 | 64 | 1008.8 |
| 20260502015830 | 43 | 263 | 2.0 | 6.0 | 0.00 | 0.02 | 0.02 | 65 | 1008.8 |
| 20260502015329 | 43 | 254 | 2.0 | 7.0 | 0.00 | 0.02 | 0.02 | 64 | 1008.8 |
| 20260502014830 | 43 | 258 | 3.0 | 8.0 | 0.00 | 0.02 | 0.02 | 65 | 1008.8 |
| 20260502014329 | 42 | 250 | 2.0 | 8.0 | 0.00 | 0.02 | 0.02 | 67 | 1008.9 |
| 20260502013830 | 42 | 234 | 2.0 | 5.0 | 0.00 | 0.02 | 0.02 | 70 | 1008.9 |
| 20260502013330 | 42 | 301 | 2.0 | 5.0 | 0.00 | 0.02 | 0.02 | 68 | 1008.9 |
| 20260502012829 | 42 | 257 | 2.0 | 4.0 | 0.00 | 0.02 | 0.02 | 67 | 1008.9 |
| 20260502012329 | 42 | 254 | 1.0 | 4.0 | 0.00 | 0.02 | 0.02 | 66 | 1008.8 |
| 20260502012045 | 42 | 253 | 1.0 | 4.0 | 0.00 | 0.02 | 0.02 | 65 | 1008.8 |
| 20260502011324 | 42 | 253 | 2.0 | 5.0 | 0.00 | 0.02 | 0.02 | 64 | 1008.8 |
| 20260502010823 | 42 | 253 | 2.0 | 5.0 | 0.00 | 0.02 | 0.02 | 63 | 1008.8 |
| 20260502010324 | 43 | 252 | 2.0 | 7.0 | 0.00 | 0.02 | 0.02 | 61 | 1008.8 |
| 20260502005822 | 43 | 250 | 2.0 | 7.0 | 0.00 | 0.02 | 0.02 | 62 | 1008.7 |
| 20260502005322 | 44 | 246 | 3.0 | 7.0 | 0.00 | 0.02 | 0.02 | 58 | 1008.7 |
| 20260502005045 | 44 | 227 | 3.0 | 9.0 | 0.00 | 0.02 | 0.02 | 58 | 1008.6 |
| 20260502004319 | 44 | 280 | 3.0 | 9.0 | 0.00 | 0.02 | 0.02 | 59 | 1008.7 |
| 20260502003817 | 44 | 250 | 2.0 | 5.0 | 0.00 | 0.02 | 0.02 | 61 | 1008.7 |
| 20260502003317 | 44 | 240 | 2.0 | 7.0 | 0.00 | 0.02 | 0.02 | 58 | 1008.6 |
| 20260502002817 | 43 | 259 | 2.0 | 7.0 | 0.00 | 0.02 | 0.02 | 59 | 1008.6 |
| 20260502002315 | 44 | 245 | 2.0 | 4.0 | 0.00 | 0.02 | 0.02 | 58 | 1008.5 |
| 20260502002044 | 44 | 242 | 3.0 | 7.0 | 0.00 | 0.02 | 0.02 | 58 | 1008.5 |
| 20260502001312 | 44 | 242 | 3.0 | 9.0 | 0.00 | 0.02 | 0.02 | 57 | 1008.4 |
| 20260502000812 | 44 | 232 | 2.0 | 9.0 | 0.00 | 0.02 | 0.02 | 57 | 1008.4 |
| 20260502000303 | 45 | 251 | 2.0 | 8.0 | 0.00 | 0.02 | 0.02 | 57 | 1008.2 |
| 20260501235754 | 45 | 275 | 2.0 | 8.0 | 0.00 | 0.02 | 0.02 | 54 | 1008.1 |
| 20260501235248 | 46 | 273 | 2.0 | 6.0 | 0.00 | 0.02 | 0.02 | 56 | 1008.1 |
| 20260501235007 | 46 | 254 | 3.0 | 9.0 | 0.00 | 0.02 | 0.02 | 51 | 1008.1 |
| 20260501234231 | 46 | 241 | 4.0 | 9.0 | 0.00 | 0.02 | 0.02 | 53 | 1007.9 |
| 20260501233943 | 46 | 234 | 4.0 | 9.0 | 0.00 | 0.02 | 0.02 | 51 | 1007.9 |
| 20260501233216 | 47 | 263 | 3.0 | 9.0 | 0.00 | 0.02 | 0.02 | 52 | 1007.8 |
| 20260501232710 | 47 | 306 | 2.0 | 9.0 | 0.00 | 0.02 | 0.02 | 51 | 1007.7 |
| 20260501232204 | 47 | 317 | 2.0 | 6.0 | 0.00 | 0.02 | 0.02 | 52 | 1007.7 |
| 20260501231654 | 47 | 275 | 2.0 | 7.0 | 0.00 | 0.02 | 0.02 | 57 | 1007.6 |
| 20260501231147 | 47 | 311 | 1.0 | 7.0 | 0.00 | 0.02 | 0.02 | 54 | 1007.5 |
| 20260501230642 | 47 | 304 | 0.0 | 2.0 | 0.00 | 0.02 | 0.02 | 53 | 1007.4 |
| 20260501230132 | 47 | 304 | 1.0 | 3.0 | 0.00 | 0.02 | 0.02 | 55 | 1007.4 |
| 20260501225629 | 48 | 304 | 1.0 | 3.0 | 0.00 | 0.02 | 0.02 | 48 | 1007.3 |
| 20260501224610 | 47 | 299 | 2.0 | 6.0 | 0.00 | 0.02 | 0.02 | 51 | 1007.4 |
| 20260501224104 | 48 | 291 | 2.0 | 6.0 | 0.00 | 0.02 | 0.02 | 48 | 1007.4 |
| 20260501223558 | 48 | 345 | 2.0 | 6.0 | 0.00 | 0.02 | 0.02 | 46 | 1007.5 |
| 20260501223048 | 48 | 262 | 3.0 | 9.0 | 0.00 | 0.02 | 0.02 | 46 | 1007.3 |
| 20260501222542 | 49 | 261 | 4.0 | 9.0 | 0.00 | 0.02 | 0.02 | 44 | 1007.4 |
| 20260501222036 | 49 | 232 | 3.0 | 8.0 | 0.00 | 0.02 | 0.02 | 43 | 1007.3 |
| 20260501221747 | 49 | 273 | 3.0 | 7.0 | 0.00 | 0.02 | 0.02 | 43 | 1007.3 |
| 20260501221020 | 49 | 276 | 3.0 | 9.0 | 0.00 | 0.02 | 0.02 | 44 | 1007.3 |
| 20260501220513 | 50 | 290 | 3.0 | 9.0 | 0.00 | 0.02 | 0.02 | 43 | 1007.3 |
| 20260501220005 | 50 | 244 | 4.0 | 10.0 | 0.00 | 0.02 | 0.02 | 42 | 1007.3 |
| 20260501215458 | 50 | 328 | 4.0 | 10.0 | 0.00 | 0.02 | 0.02 | 42 | 1007.3 |
| 20260501214952 | 50 | 236 | 4.0 | 10.0 | 0.00 | 0.02 | 0.02 | 48 | 1007.3 |
| 20260501214442 | 49 | 297 | 4.0 | 10.0 | 0.00 | 0.02 | 0.02 | 46 | 1007.3 |
| 20260501214152 | 49 | 325 | 3.0 | 10.0 | 0.00 | 0.02 | 0.02 | 42 | 1007.3 |
| 20260501213430 | 50 | 261 | 5.0 | 16.0 | 0.00 | 0.02 | 0.02 | 44 | 1007.4 |
| 20260501212920 | 50 | 246 | 5.0 | 16.0 | 0.00 | 0.02 | 0.02 | 42 | 1007.4 |
| 20260501212413 | 51 | 257 | 4.0 | 11.0 | 0.00 | 0.02 | 0.02 | 39 | 1007.3 |
| 20260501211908 | 52 | 323 | 3.0 | 9.0 | 0.00 | 0.02 | 0.02 | 37 | 1007.2 |
| 20260501211358 | 50 | 321 | 2.0 | 9.0 | 0.00 | 0.02 | 0.02 | 41 | 1007.2 |
| 20260501211121 | 49 | 239 | 3.0 | 9.0 | 0.00 | 0.02 | 0.02 | 42 | 1007.2 |
| 20260501210347 | 49 | 265 | 4.0 | 9.0 | 0.00 | 0.02 | 0.02 | 44 | 1007.3 |
| 20260501210059 | 49 | 268 | 4.0 | 10.0 | 0.00 | 0.02 | 0.02 | 41 | 1007.2 |
| 20260501205554 | 51 | 250 | 5.0 | 11.0 | 0.00 | 0.02 | 0.02 | 41 | 1007.3 |
| 20260501204824 | 53 | 238 | 5.0 | 11.0 | 0.00 | 0.02 | 0.02 | 38 | 1007.2 |
| 20260501204314 | 53 | 327 | 5.0 | 12.0 | 0.00 | 0.02 | 0.02 | 38 | 1007.2 |
| 20260501203808 | 53 | 206 | 5.0 | 12.0 | 0.00 | 0.02 | 0.02 | 38 | 1007.2 |
| 20260501203307 | 51 | 278 | 5.0 | 12.0 | 0.00 | 0.02 | 0.02 | 43 | 1007.3 |
| 20260501203035 | 50 | 234 | 7.0 | 17.0 | 0.00 | 0.02 | 0.02 | 45 | 1007.4 |
| 20260501202307 | 51 | 254 | 7.0 | 17.0 | 0.00 | 0.02 | 0.02 | 39 | 1007.3 |
| 20260501201807 | 53 | 280 | 5.0 | 14.0 | 0.00 | 0.02 | 0.02 | 36 | 1007.2 |
| 20260501201307 | 52 | 324 | 4.0 | 11.0 | 0.00 | 0.02 | 0.02 | 40 | 1007.1 |
| 20260501200807 | 51 | 261 | 4.0 | 11.0 | 0.00 | 0.02 | 0.02 | 44 | 1007.3 |
| 20260501200307 | 50 | 259 | 4.0 | 11.0 | 0.00 | 0.02 | 0.02 | 41 | 1007.2 |
| 20260501195805 | 51 | 350 | 5.0 | 11.0 | 0.00 | 0.02 | 0.02 | 43 | 1007.3 |
| 20260501195306 | 51 | 5 | 6.0 | 15.0 | 0.00 | 0.02 | 0.02 | 40 | 1007.3 |
| 20260501194805 | 53 | 246 | 6.0 | 15.0 | 0.00 | 0.02 | 0.02 | 37 | 1007.3 |
| 20260501194305 | 53 | 297 | 7.0 | 19.0 | 0.00 | 0.02 | 0.02 | 35 | 1007.3 |
| 20260501193805 | 54 | 277 | 8.0 | 19.0 | 0.00 | 0.02 | 0.02 | 35 | 1007.4 |
| 20260501193305 | 54 | 262 | 7.0 | 16.0 | 0.00 | 0.02 | 0.02 | 37 | 1007.3 |
| 20260501192805 | 53 | 235 | 5.0 | 14.0 | 0.00 | 0.02 | 0.02 | 38 | 1007.3 |
| 20260501192259 | 51 | 232 | 5.0 | 16.0 | 0.00 | 0.02 | 0.02 | 37 | 1007.4 |
| 20260501191757 | 54 | 266 | 6.0 | 16.0 | 0.00 | 0.02 | 0.02 | 36 | 1007.5 |
| 20260501191257 | 52 | 208 | 6.0 | 15.0 | 0.00 | 0.02 | 0.02 | 41 | 1007.3 |
| 20260501190756 | 51 | 244 | 5.0 | 15.0 | 0.00 | 0.02 | 0.02 | 38 | 1007.4 |
| 20260501190257 | 51 | 225 | 5.0 | 15.0 | 0.00 | 0.02 | 0.02 | 41 | 1007.6 |
| 20260501185757 | 49 | 309 | 5.0 | 12.0 | 0.00 | 0.02 | 0.02 | 43 | 1007.5 |
| 20260501185258 | 49 | 0 | 5.0 | 12.0 | 0.00 | 0.02 | 0.02 | 43 | 1007.6 |
| 20260501184755 | 49 | 315 | 5.0 | 16.0 | 0.00 | 0.02 | 0.02 | 40 | 1007.6 |
| 20260501184255 | 51 | 240 | 6.0 | 16.0 | 0.00 | 0.02 | 0.02 | 38 | 1007.6 |
| 20260501183755 | 51 | 308 | 7.0 | 18.0 | 0.00 | 0.02 | 0.02 | 38 | 1007.6 |
| 20260501183253 | 51 | 241 | 6.0 | 18.0 | 0.00 | 0.02 | 0.02 | 36 | 1007.7 |
| 20260501182753 | 51 | 323 | 6.0 | 14.0 | 0.00 | 0.02 | 0.02 | 39 | 1007.6 |
| 20260501182253 | 51 | 302 | 5.0 | 14.0 | 0.00 | 0.02 | 0.02 | 37 | 1007.7 |
| 20260501181753 | 52 | 188 | 5.0 | 12.0 | 0.00 | 0.02 | 0.02 | 43 | 1007.7 |
| 20260501181253 | 50 | 292 | 6.0 | 15.0 | 0.00 | 0.02 | 0.02 | 40 | 1007.8 |
| 20260501180252 | 51 | 259 | 6.0 | 13.0 | 0.00 | 0.02 | 0.02 | 39 | 1007.9 |
| 20260501175753 | 53 | 257 | 5.0 | 13.0 | 0.00 | 0.02 | 0.02 | 37 | 1007.9 |
| 20260501175252 | 52 | 18 | 6.0 | 12.0 | 0.00 | 0.02 | 0.02 | 40 | 1007.9 |
| 20260501174750 | 51 | 233 | 7.0 | 13.0 | 0.00 | 0.02 | 0.02 | 38 | 1008.1 |
| 20260501174249 | 51 | 300 | 7.0 | 15.0 | 0.00 | 0.02 | 0.02 | 39 | 1008.1 |
| 20260501173749 | 49 | 228 | 8.0 | 18.0 | 0.00 | 0.02 | 0.02 | 43 | 1008.1 |
| 20260501173249 | 49 | 247 | 7.0 | 18.0 | 0.00 | 0.02 | 0.02 | 41 | 1008.1 |
| 20260501172749 | 49 | 298 | 7.0 | 13.0 | 0.00 | 0.02 | 0.02 | 38 | 1008.1 |
| 20260501172248 | 51 | 242 | 7.0 | 12.0 | 0.00 | 0.02 | 0.02 | 37 | 1008.1 |
| 20260501171749 | 50 | 242 | 6.0 | 12.0 | 0.00 | 0.02 | 0.02 | 43 | 1008.0 |
| 20260501171249 | 49 | 297 | 5.0 | 11.0 | 0.00 | 0.02 | 0.02 | 41 | 1008.1 |
| 20260501170748 | 50 | 15 | 6.0 | 13.0 | 0.00 | 0.02 | 0.02 | 38 | 1008.1 |
| 20260501170249 | 53 | 294 | 5.0 | 13.0 | 0.00 | 0.02 | 0.02 | 36 | 1008.0 |
| 20260501165748 | 52 | 273 | 5.0 | 20.0 | 0.00 | 0.02 | 0.02 | 44 | 1008.0 |
| 20260501165249 | 51 | 313 | 5.0 | 20.0 | 0.00 | 0.02 | 0.02 | 42 | 1008.1 |
| 20260501165010 | 50 | 238 | 5.0 | 12.0 | 0.00 | 0.02 | 0.02 | 38 | 1008.1 |
| 20260501164248 | 49 | 244 | 6.0 | 13.0 | 0.00 | 0.02 | 0.02 | 42 | 1008.2 |
| 20260501163749 | 48 | 259 | 6.0 | 13.0 | 0.00 | 0.02 | 0.02 | 46 | 1008.2 |
| 20260501163511 | 50 | 284 | 6.0 | 13.0 | 0.00 | 0.02 | 0.02 | 41 | 1008.1 |
| 20260501162745 | 48 | 249 | 5.0 | 13.0 | 0.00 | 0.02 | 0.02 | 42 | 1008.2 |
| 20260501162245 | 50 | 27 | 6.0 | 16.0 | 0.00 | 0.02 | 0.02 | 43 | 1008.2 |
| 20260501161745 | 50 | 41 | 9.0 | 17.0 | 0.00 | 0.02 | 0.02 | 39 | 1008.2 |
| 20260501161245 | 50 | 248 | 9.0 | 19.0 | 0.00 | 0.02 | 0.02 | 39 | 1008.2 |
| 20260501160744 | 50 | 267 | 8.0 | 19.0 | 0.00 | 0.02 | 0.02 | 45 | 1008.2 |
| 20260501160245 | 49 | 270 | 8.0 | 16.0 | 0.00 | 0.02 | 0.02 | 42 | 1008.4 |
| 20260501155745 | 49 | 259 | 9.0 | 16.0 | 0.00 | 0.02 | 0.02 | 43 | 1008.4 |
| 20260501154745 | 48 | 243 | 8.0 | 20.0 | 0.00 | 0.02 | 0.02 | 44 | 1008.5 |
| 20260501154245 | 49 | 269 | 7.0 | 20.0 | 0.00 | 0.02 | 0.02 | 46 | 1008.4 |
| 20260501153744 | 49 | 5 | 6.0 | 16.0 | 0.00 | 0.02 | 0.02 | 46 | 1008.2 |
| 20260501153245 | 49 | 288 | 4.0 | 16.0 | 0.00 | 0.02 | 0.02 | 47 | 1008.5 |
| 20260501152745 | 48 | 329 | 6.0 | 15.0 | 0.00 | 0.02 | 0.02 | 45 | 1008.4 |
| 20260501152513 | 48 | 285 | 6.0 | 15.0 | 0.00 | 0.02 | 0.02 | 45 | 1008.5 |
| 20260501151745 | 48 | 289 | 5.0 | 14.0 | 0.00 | 0.02 | 0.02 | 48 | 1008.5 |
| 20260501151245 | 47 | 262 | 6.0 | 14.0 | 0.00 | 0.02 | 0.02 | 47 | 1008.5 |
| 20260501150738 | 48 | 323 | 6.0 | 14.0 | 0.00 | 0.02 | 0.02 | 49 | 1008.5 |
| 20260501150238 | 47 | 298 | 7.0 | 14.0 | 0.00 | 0.02 | 0.02 | 47 | 1008.5 |
| 20260501145739 | 47 | 259 | 5.0 | 14.0 | 0.00 | 0.02 | 0.02 | 48 | 1008.6 |
| 20260501145238 | 47 | 269 | 5.0 | 13.0 | 0.00 | 0.02 | 0.02 | 53 | 1008.6 |
| 20260501144739 | 47 | 271 | 6.0 | 14.0 | 0.00 | 0.02 | 0.02 | 51 | 1008.7 |
| 20260501144239 | 46 | 278 | 6.0 | 16.0 | 0.00 | 0.02 | 0.02 | 51 | 1008.6 |
| 20260501144005 | 46 | 302 | 6.0 | 16.0 | 0.00 | 0.02 | 0.02 | 53 | 1008.7 |
| 20260501143240 | 45 | 293 | 5.0 | 12.0 | 0.00 | 0.02 | 0.02 | 54 | 1008.6 |
| 20260501142739 | 46 | 11 | 5.0 | 12.0 | 0.00 | 0.02 | 0.02 | 55 | 1008.6 |
| 20260501142235 | 45 | 286 | 5.0 | 11.0 | 0.00 | 0.02 | 0.02 | 59 | 1008.6 |
| 20260501141727 | 44 | 275 | 4.0 | 11.0 | 0.00 | 0.02 | 0.02 | 56 | 1008.6 |